QPF
0.01 0.02 0.03 0.03 0.02 0.02 0.02 0.02 0.02 0.02 0.01 0.02 0.02 0.01 0.01 0.00 0.00 0.01 0.01 0.01 0.02 0.02 0.04 0.04 0.02 0.01 0.01 0.01 0.01 0.02 0.02 0.02 0.01 0.02 0.03 0.03 0.03 0.02 0.03 0.02 0.01 0.00 0.01 0.01
0.01 0.03 0.01 0.01 0.01 0.01 0.01 0.02 0.01 0.01 0.01 0.01 0.01 0.01 0.00 0.00 0.01 0.01 0.00 0.00 0.01 0.01 0.02 0.02 0.01 0.01 0.01 0.01 0.01 0.03 0.03 0.02 0.02 0.02 0.02 0.03 0.03 0.02 0.02 0.01 0.01 0.00 0.01 0.02
0.01 0.02 0.01 0.01 0.01 0.00 0.01 0.01 0.01 0.01 0.01 0.01 0.01 0.01 0.01 0.01 0.01 0.01 0.00 0.01 0.01 0.01 0.01 0.01 0.01 0.01 0.01 0.01 0.01 0.01 0.01 0.01 0.02 0.02 0.03 0.03 0.05 0.04 0.04 0.03 0.02 0.01 0.01 0.03
0.01 0.01 0.01 0.01 0.00 0.00 0.01 0.00 0.00 0.00 0.02 0.03 0.01 0.03 0.02 0.01 0.01 0.01 0.01 0.00 0.01 0.01 0.01 0.01 0.02 0.02 0.02 0.01 0.01 0.01 0.01 0.01 0.01 0.01 0.02 0.04 0.05 0.06 0.05 0.03 0.01 0.01 0.02 0.02
0.01 0.01 0.01 0.00 0.00 0.00 0.01 0.00 0.00 0.00 0.01 0.03 0.01 0.03 0.02 0.01 0.01 0.01 0.02 0.01 0.00 0.00 0.01 0.01 0.02 0.02 0.02 0.02 0.01 0.02 0.01 0.01 0.00 0.01 0.02 0.04 0.05 0.05 0.03 0.01 0.01 0.01 0.01 0.02
0.00 0.01 0.01 0.01 0.00 0.00 0.01 0.00 0.01 0.01 0.03 0.04 0.01 0.02 0.02 0.00 0.00 0.01 0.01 0.01 0.00 0.00 0.01 0.00 0.01 0.01 0.02 0.02 0.02 0.02 0.02 0.02 0.01 0.01 0.01 0.01 0.02 0.02 0.02 0.02 0.01 0.02 0.02 0.02
0.01 0.01 0.01 0.01 0.00 0.00 0.01 0.03 0.05 0.06 0.06 0.04 0.01 0.01 0.01 0.00 0.00 0.00 0.00 0.00 0.00 0.00 0.00 0.00 0.00 0.01 0.01 0.02 0.02 0.03 0.02 0.03 0.02 0.01 0.01 0.01 0.02 0.01 0.01 0.01 0.02 0.01 0.02 0.01
0.01 0.01 0.00 0.00 0.00 0.01 0.01 0.02 0.05 0.05 0.05 0.03 0.01 0.00 0.00 0.00 0.00 0.00 0.00 0.00 0.00 0.00 0.00 0.00 0.00 0.01 0.01 0.02 0.02 0.02 0.02 0.02 0.02 0.01 0.00 0.00 0.00 0.01 0.01 0.01 0.01 0.00 0.01 0.01
0.01 0.01 0.00 0.00 0.00 0.00 0.01 0.01 0.01 0.02 0.03 0.04 0.02 0.00 0.00 0.00 0.00 0.00 0.00 0.00 0.00 0.00 0.00 0.00 0.00 0.00 0.01 0.01 0.01 0.02 0.01 0.02 0.02 0.03 0.01 0.00 0.00 0.00 0.01 0.01 0.00 0.00 0.00 0.01
0.00 0.00 0.00 0.00 0.00 0.00 0.00 0.00 0.01 0.02 0.04 0.05 0.03 0.01 0.00 0.00 0.00 0.00 0.00 0.00 0.00 0.00 0.00 0.01 0.01 0.00 0.01 0.01 0.01 0.01 0.02 0.02 0.02 0.02 0.02 0.01 0.01 0.01 0.01 0.01 0.01 0.01 0.01 0.01
0.00 0.00 0.00 0.00 0.00 0.00 0.00 0.00 0.01 0.02 0.02 0.04 0.04 0.02 0.00 0.00 0.00 0.00 0.00 0.00 0.01 0.01 0.01 0.01 0.01 0.01 0.01 0.01 0.01 0.01 0.02 0.02 0.02 0.01 0.01 0.02 0.02 0.02 0.02 0.01 0.01 0.01 0.00 0.00
0.00 0.00 0.00 0.00 0.00 0.00 0.00 0.00 0.01 0.02 0.02 0.01 0.03 0.02 0.00 0.00 0.00 0.00 0.00 0.00 0.01 0.01 0.02 0.02 0.02 0.02 0.02 0.02 0.01 0.01 0.01 0.01 0.01 0.01 0.01 0.01 0.02 0.03 0.01 0.01 0.00 0.01 0.01 0.00
0.00 0.00 0.01 0.01 0.01 0.00 0.00 0.00 0.00 0.00 0.01 0.02 0.02 0.02 0.00 0.00 0.00 0.00 0.00 0.00 0.01 0.01 0.02 0.02 0.01 0.02 0.02 0.02 0.02 0.03 0.02 0.02 0.02 0.02 0.02 0.01 0.02 0.03 0.02 0.01 0.01 0.00 0.00 0.00
0.01 0.01 0.01 0.02 0.01 0.00 0.00 0.00 0.00 0.00 0.01 0.02 0.01 0.01 0.00 0.00 0.00 0.00 0.00 0.00 0.00 0.00 0.00 0.01 0.01 0.01 0.01 0.01 0.01 0.01 0.02 0.02 0.02 0.02 0.02 0.02 0.01 0.02 0.03 0.02 0.01 0.01 0.00 0.00
0.01 0.01 0.00 0.00 0.00 0.00 0.00 0.00 0.00 0.00 0.00 0.00 0.01 0.01 0.00 0.00 0.00 0.00 0.00 0.00 0.00 0.00 0.00 0.00 0.00 0.00 0.00 0.01 0.01 0.01 0.01 0.01 0.01 0.01 0.02 0.02 0.02 0.02 0.02 0.02 0.02 0.01 0.01 0.01
0.01 0.01 0.00 0.00 0.00 0.00 0.00 0.00 0.00 0.00 0.00 0.00 0.00 0.01 0.00 0.00 0.00 0.00 0.00 0.00 0.00 0.00 0.00 0.00 0.00 0.00 0.00 0.00 0.00 0.00 0.00 0.00 0.01 0.01 0.01 0.02 0.02 0.02 0.01 0.01 0.01 0.01 0.01 0.01
0.01 0.01 0.01 0.01 0.00 0.00 0.00 0.00 0.00 0.00 0.00 0.00 0.00 0.01 0.00 0.00 0.00 0.00 0.00 0.00 0.00 0.00 0.00 0.00 0.00 0.00 0.00 0.00 0.01 0.01 0.01 0.01 0.01 0.01 0.01 0.01 0.01 0.01 0.01 0.01 0.01 0.01 0.01 0.01
0.00 0.00 0.01 0.01 0.01 0.02 0.01 0.00 0.00 0.00 0.00 0.00 0.00 0.00 0.00 0.00 0.00 0.00 0.00 0.00 0.00 0.00 0.00 0.00 0.00 0.00 0.00 0.01 0.01 0.01 0.00 0.01 0.01 0.01 0.00 0.01 0.01 0.01 0.00 0.00 0.01 0.01 0.01 0.01
0.00 0.00 0.01 0.02 0.02 0.01 0.01 0.00 0.00 0.00 0.00 0.00 0.00 0.00 0.00 0.00 0.00 0.00 0.00 0.00 0.00 0.00 0.00 0.00 0.00 0.00 0.01 0.01 0.01 0.00 0.00 0.00 0.00 0.00 0.00 0.00 0.01 0.01 0.01 0.00 0.00 0.01 0.01 0.02
0.00 0.00 0.01 0.01 0.01 0.02 0.01 0.00 0.00 0.00 0.00 0.00 0.00 0.00 0.00 0.00 0.00 0.00 0.00 0.00 0.00 0.00 0.00 0.00 0.00 0.00 0.00 0.01 0.01 0.00 0.00 0.01 0.01 0.01 0.01 0.01 0.01 0.00 0.00 0.00 0.00 0.00 0.00 0.01
0.00 0.00 0.00 0.00 0.00 0.01 0.00 0.00 0.00 0.00 0.00 0.00 0.00 0.00 0.00 0.00 0.01 0.00 0.00 0.00 0.00 0.00 0.00 0.00 0.00 0.00 0.00 0.00 0.01 0.01 0.01 0.01 0.01 0.01 0.02 0.02 0.02 0.02 0.01 0.01 0.01 0.01 0.01 0.01
0.00 0.00 0.00 0.00 0.01 0.01 0.00 0.00 0.00 0.00 0.00 0.00 0.00 0.00 0.00 0.00 0.00 0.00 0.00 0.00 0.00 0.00 0.00 0.00 0.01 0.01 0.01 0.01 0.01 0.01 0.02 0.02 0.02 0.03 0.02 0.02 0.02 0.02 0.02 0.02 0.02 0.02 0.02 0.02
0.00 0.00 0.01 0.01 0.01 0.01 0.01 0.01 0.00 0.00 0.00 0.00 0.00 0.00 0.00 0.00 0.00 0.00 0.00 0.00 0.00 0.00 0.00 0.00 0.00 0.01 0.01 0.01 0.01 0.01 0.02 0.02 0.02 0.02 0.02 0.02 0.02 0.02 0.02 0.01 0.01 0.01 0.01 0.01
0.00 0.00 0.01 0.01 0.00 0.01 0.00 0.00 0.00 0.00 0.00 0.00 0.00 0.00 0.00 0.00 0.00 0.00 0.00 0.00 0.00 0.00 0.00 0.00 0.00 0.01 0.01 0.01 0.01 0.01 0.01 0.01 0.01 0.01 0.01 0.01 0.01 0.02 0.02 0.01 0.01 0.01 0.01 0.01
0.00 0.00 0.01 0.01 0.01 0.01 0.00 0.00 0.00 0.00 0.00 0.00 0.00 0.00 0.00 0.00 0.00 0.00 0.00 0.00 0.00 0.00 0.00 0.00 0.00 0.01 0.01 0.01 0.01 0.01 0.01 0.01 0.01 0.01 0.01 0.01 0.01 0.01 0.01 0.01 0.01 0.01 0.01 0.01
0.00 0.00 0.01 0.01 0.01 0.01 0.01 0.00 0.01 0.01 0.01 0.00 0.00 0.00 0.00 0.00 0.01 0.00 0.00 0.00 0.00 0.01 0.01 0.01 0.01 0.01 0.01 0.02 0.02 0.02 0.02 0.01 0.01 0.01 0.01 0.01 0.01 0.01 0.01 0.01 0.01 0.01 0.01 0.01
MSLP
1013.51 1014.26 1014.92 1015.44 1015.81 1016.04 1016.17 1016.23 1016.25 1016.27 1016.28 1016.30 1016.30 1016.29 1016.26 1016.21 1016.14 1016.08 1016.05 1016.04 1016.07 1016.13 1016.19 1016.24 1016.28 1016.29 1016.29 1016.30 1016.35 1016.47 1016.68 1016.98 1017.36 1017.78 1018.21 1018.59 1018.88 1019.04 1019.09 1019.02 1018.88 1018.71 1018.55 1018.46
1014.22 1014.84 1015.32 1015.65 1015.84 1015.92 1015.93 1015.93 1015.93 1015.95 1016.00 1016.05 1016.09 1016.09 1016.05 1015.99 1015.91 1015.85 1015.84 1015.88 1015.98 1016.11 1016.27 1016.40 1016.50 1016.55 1016.57 1016.57 1016.60 1016.70 1016.90 1017.20 1017.60 1018.06 1018.54 1018.97 1019.30 1019.49 1019.54 1019.46 1019.28 1019.07 1018.87 1018.74
1014.74 1015.22 1015.54 1015.71 1015.76 1015.73 1015.68 1015.65 1015.65 1015.70 1015.77 1015.83 1015.84 1015.81 1015.71 1015.58 1015.45 1015.37 1015.36 1015.44 1015.62 1015.87 1016.14 1016.40 1016.60 1016.73 1016.79 1016.81 1016.83 1016.91 1017.08 1017.37 1017.77 1018.25 1018.75 1019.22 1019.58 1019.80 1019.87 1019.79 1019.60 1019.37 1019.15 1019.00
1015.03 1015.39 1015.59 1015.64 1015.61 1015.53 1015.47 1015.45 1015.49 1015.57 1015.64 1015.67 1015.63 1015.50 1015.29 1015.04 1014.81 1014.65 1014.62 1014.73 1014.98 1015.35 1015.76 1016.16 1016.50 1016.74 1016.87 1016.93 1016.96 1017.03 1017.18 1017.46 1017.85 1018.33 1018.84 1019.33 1019.73 1019.98 1020.07 1020.01 1019.84 1019.62 1019.41 1019.26
1015.08 1015.34 1015.46 1015.46 1015.40 1015.34 1015.32 1015.37 1015.46 1015.58 1015.65 1015.64 1015.50 1015.23 1014.86 1014.44 1014.06 1013.79 1013.70 1013.82 1014.13 1014.60 1015.15 1015.71 1016.19 1016.55 1016.78 1016.90 1016.96 1017.03 1017.18 1017.43 1017.81 1018.29 1018.81 1019.32 1019.74 1020.03 1020.15 1020.13 1020.00 1019.81 1019.63 1019.51
1014.94 1015.13 1015.20 1015.19 1015.16 1015.16 1015.23 1015.37 1015.55 1015.71 1015.79 1015.72 1015.47 1015.05 1014.49 1013.88 1013.32 1012.91 1012.74 1012.83 1013.17 1013.72 1014.39 1015.08 1015.70 1016.19 1016.52 1016.72 1016.83 1016.92 1017.06 1017.31 1017.68 1018.15 1018.69 1019.21 1019.66 1019.99 1020.16 1020.19 1020.11 1019.97 1019.84 1019.77
1014.65 1014.78 1014.83 1014.85 1014.88 1014.98 1015.16 1015.42 1015.69 1015.91 1015.99 1015.87 1015.52 1014.94 1014.21 1013.41 1012.68 1012.13 1011.86 1011.90 1012.25 1012.85 1013.60 1014.40 1015.14 1015.73 1016.16 1016.43 1016.59 1016.71 1016.87 1017.13 1017.50 1017.97 1018.51 1019.06 1019.54 1019.90 1020.13 1020.21 1020.18 1020.11 1020.03 1020.01
1014.28 1014.37 1014.41 1014.46 1014.57 1014.77 1015.07 1015.44 1015.80 1016.08 1016.17 1016.02 1015.58 1014.89 1014.02 1013.07 1012.20 1011.54 1011.17 1011.16 1011.49 1012.10 1012.91 1013.77 1014.58 1015.26 1015.76 1016.10 1016.31 1016.47 1016.66 1016.93 1017.30 1017.79 1018.34 1018.90 1019.41 1019.81 1020.08 1020.21 1020.24 1020.22 1020.19 1020.22
1013.89 1013.94 1013.98 1014.06 1014.23 1014.52 1014.91 1015.36 1015.80 1016.12 1016.23 1016.06 1015.58 1014.83 1013.87 1012.84 1011.89 1011.15 1010.72 1010.66 1010.97 1011.58 1012.39 1013.28 1014.13 1014.85 1015.40 1015.79 1016.05 1016.25 1016.47 1016.76 1017.15 1017.65 1018.21 1018.78 1019.31 1019.74 1020.04 1020.21 1020.28 1020.30 1020.31 1020.37
1013.52 1013.54 1013.58 1013.68 1013.88 1014.21 1014.65 1015.15 1015.62 1015.96 1016.08 1015.91 1015.42 1014.66 1013.69 1012.66 1011.69 1010.94 1010.50 1010.42 1010.70 1011.28 1012.07 1012.95 1013.80 1014.53 1015.11 1015.53 1015.83 1016.07 1016.32 1016.64 1017.05 1017.56 1018.13 1018.71 1019.25 1019.69 1020.01 1020.21 1020.30 1020.34 1020.38 1020.45
1013.21 1013.21 1013.23 1013.33 1013.54 1013.86 1014.30 1014.78 1015.23 1015.55 1015.66 1015.49 1015.03 1014.30 1013.39 1012.42 1011.51 1010.81 1010.40 1010.33 1010.60 1011.16 1011.92 1012.76 1013.58 1014.30 1014.88 1015.32 1015.66 1015.93 1016.22 1016.56 1017.00 1017.51 1018.08 1018.66 1019.20 1019.65 1019.97 1020.18 1020.29 1020.35 1020.39 1020.47
1012.95 1012.95 1012.97 1013.05 1013.22 1013.51 1013.87 1014.28 1014.66 1014.92 1014.98 1014.81 1014.37 1013.71 1012.90 1012.04 1011.25 1010.64 1010.31 1010.28 1010.56 1011.09 1011.81 1012.60 1013.38 1014.07 1014.65 1015.10 1015.47 1015.78 1016.10 1016.48 1016.93 1017.46 1018.03 1018.60 1019.13 1019.57 1019.90 1020.11 1020.23 1020.30 1020.36 1020.44
1012.75 1012.75 1012.77 1012.83 1012.96 1013.16 1013.42 1013.70 1013.95 1014.10 1014.09 1013.88 1013.47 1012.88 1012.18 1011.45 1010.81 1010.33 1010.10 1010.13 1010.43 1010.95 1011.62 1012.37 1013.10 1013.77 1014.33 1014.80 1015.19 1015.55 1015.91 1016.33 1016.80 1017.33 1017.90 1018.46 1018.98 1019.42 1019.75 1019.98 1020.12 1020.21 1020.28 1020.37
1012.57 1012.61 1012.65 1012.69 1012.75 1012.85 1012.97 1013.09 1013.17 1013.16 1013.04 1012.77 1012.36 1011.83 1011.23 1010.65 1010.15 1009.81 1009.68 1009.79 1010.11 1010.62 1011.26 1011.96 1012.65 1013.29 1013.85 1014.34 1014.77 1015.17 1015.59 1016.04 1016.54 1017.09 1017.65 1018.21 1018.72 1019.16 1019.50 1019.76 1019.93 1020.06 1020.17 1020.30
1012.41 1012.50 1012.55 1012.57 1012.57 1012.56 1012.53 1012.47 1012.36 1012.18 1011.92 1011.56 1011.13 1010.63 1010.12 1009.66 1009.29 1009.08 1009.05 1009.21 1009.56 1010.06 1010.66 1011.32 1011.98 1012.60 1013.16 1013.68 1014.15 1014.61 1015.09 1015.59 1016.12 1016.68 1017.26 1017.82 1018.33 1018.78 1019.15 1019.45 1019.67 1019.86 1020.03 1020.21
1012.23 1012.36 1012.43 1012.44 1012.39 1012.27 1012.09 1011.85 1011.55 1011.20 1010.79 1010.34 1009.86 1009.38 1008.93 1008.55 1008.29 1008.18 1008.22 1008.43 1008.79 1009.28 1009.85 1010.46 1011.09 1011.69 1012.27 1012.82 1013.34 1013.87 1014.40 1014.95 1015.53 1016.12 1016.71 1017.28 1017.81 1018.28 1018.70 1019.04 1019.34 1019.60 1019.85 1020.09
1012.03 1012.18 1012.26 1012.24 1012.13 1011.91 1011.60 1011.21 1010.75 1010.24 1009.70 1009.16 1008.63 1008.15 1007.74 1007.43 1007.25 1007.20 1007.30 1007.53 1007.89 1008.34 1008.87 1009.44 1010.03 1010.63 1011.22 1011.80 1012.38 1012.96 1013.55 1014.16 1014.78 1015.41 1016.02 1016.62 1017.17 1017.68 1018.14 1018.55 1018.93 1019.27 1019.60 1019.91
1011.77 1011.90 1011.96 1011.91 1011.74 1011.44 1011.02 1010.51 1009.92 1009.30 1008.67 1008.06 1007.50 1007.03 1006.65 1006.39 1006.26 1006.26 1006.38 1006.62 1006.95 1007.36 1007.84 1008.36 1008.91 1009.49 1010.08 1010.69 1011.31 1011.94 1012.60 1013.26 1013.93 1014.59 1015.23 1015.85 1016.44 1016.99 1017.50 1017.97 1018.42 1018.84 1019.24 1019.62
1011.44 1011.52 1011.52 1011.41 1011.17 1010.80 1010.31 1009.71 1009.06 1008.37 1007.69 1007.06 1006.51 1006.06 1005.72 1005.51 1005.42 1005.45 1005.58 1005.80 1006.09 1006.45 1006.86 1007.32 1007.83 1008.36 1008.94 1009.55 1010.20 1010.88 1011.58 1012.28 1012.99 1013.69 1014.37 1015.01 1015.63 1016.22 1016.77 1017.30 1017.80 1018.27 1018.73 1019.16
1011.05 1011.02 1010.92 1010.72 1010.41 1009.98 1009.44 1008.81 1008.13 1007.43 1006.77 1006.17 1005.66 1005.26 1004.98 1004.82 1004.78 1004.82 1004.95 1005.14 1005.39 1005.68 1006.02 1006.40 1006.83 1007.32 1007.86 1008.46 1009.11 1009.81 1010.53 1011.27 1012.01 1012.73 1013.44 1014.11 1014.75 1015.36 1015.95 1016.51 1017.04 1017.56 1018.04 1018.49
1010.59 1010.41 1010.18 1009.89 1009.50 1009.01 1008.44 1007.82 1007.16 1006.51 1005.90 1005.37 1004.94 1004.63 1004.42 1004.33 1004.33 1004.39 1004.51 1004.67 1004.86 1005.08 1005.33 1005.62 1005.97 1006.39 1006.87 1007.43 1008.06 1008.74 1009.47 1010.22 1010.98 1011.72 1012.44 1013.13 1013.79 1014.42 1015.02 1015.60 1016.15 1016.66 1017.15 1017.60
1010.07 1009.73 1009.36 1008.95 1008.48 1007.96 1007.39 1006.79 1006.19 1005.62 1005.12 1004.69 1004.37 1004.15 1004.03 1004.00 1004.04 1004.13 1004.23 1004.36 1004.48 1004.62 1004.78 1004.98 1005.24 1005.56 1005.97 1006.47 1007.04 1007.69 1008.40 1009.14 1009.89 1010.64 1011.37 1012.07 1012.74 1013.38 1013.98 1014.55 1015.09 1015.60 1016.07 1016.50
1009.51 1009.01 1008.51 1007.99 1007.46 1006.91 1006.36 1005.82 1005.30 1004.83 1004.44 1004.13 1003.92 1003.80 1003.77 1003.80 1003.87 1003.96 1004.06 1004.14 1004.21 1004.27 1004.34 1004.44 1004.59 1004.82 1005.14 1005.55 1006.06 1006.65 1007.31 1008.02 1008.76 1009.49 1010.22 1010.92 1011.59 1012.22 1012.81 1013.37 1013.90 1014.38 1014.83 1015.23
1008.91 1008.28 1007.67 1007.08 1006.51 1005.96 1005.45 1004.97 1004.54 1004.18 1003.90 1003.70 1003.59 1003.55 1003.58 1003.65 1003.74 1003.83 1003.91 1003.95 1003.95 1003.95 1003.93 1003.94 1004.00 1004.13 1004.35 1004.67 1005.10 1005.62 1006.22 1006.88 1007.57 1008.29 1008.99 1009.68 1010.34 1010.96 1011.54 1012.08 1012.59 1013.05 1013.47 1013.85
1008.26 1007.55 1006.88 1006.26 1005.69 1005.17 1004.71 1004.30 1003.97 1003.70 1003.51 1003.39 1003.34 1003.36 1003.42 1003.51 1003.60 1003.67 1003.71 1003.71 1003.67 1003.60 1003.52 1003.46 1003.43 1003.48 1003.61 1003.84 1004.18 1004.62 1005.15 1005.74 1006.39 1007.06 1007.73 1008.39 1009.03 1009.64 1010.20 1010.73 1011.21 1011.65 1012.05 1012.42
1007.57 1006.83 1006.16 1005.55 1005.01 1004.55 1004.16 1003.83 1003.57 1003.38 1003.24 1003.17 1003.15 1003.18 1003.24 1003.31 1003.38 1003.42 1003.43 1003.39 1003.32 1003.21 1003.09 1002.97 1002.89 1002.87 1002.93 1003.09 1003.34 1003.70 1004.15 1004.68 1005.26 1005.87 1006.50 1007.13 1007.74 1008.32 1008.86 1009.36 1009.82 1010.24 1010.63 1010.99
Thickness
5761 5747 5737 5742 5747 5745 5742 5733 5728 5735 5746 5740 5732 5730 5736 5742 5741 5738 5737 5736 5735 5735 5738 5740 5741 5740 5739 5738 5736 5733 5731 5730 5728 5724 5721 5718 5717 5718 5717 5716 5715 5714 5713 5712
5747 5738 5750 5757 5755 5749 5741 5732 5730 5736 5745 5740 5733 5732 5740 5742 5740 5740 5738 5737 5737 5736 5736 5736 5737 5736 5735 5734 5733 5732 5729 5728 5726 5723 5721 5719 5716 5715 5714 5714 5713 5712 5710 5709
5737 5745 5756 5751 5746 5742 5739 5734 5733 5732 5739 5743 5734 5726 5734 5741 5744 5742 5742 5741 5740 5737 5734 5733 5732 5732 5732 5731 5731 5731 5728 5727 5725 5723 5720 5717 5714 5712 5710 5709 5708 5709 5708 5706
5745 5752 5750 5745 5742 5742 5732 5746 5743 5738 5728 5722 5730 5708 5728 5738 5735 5737 5738 5739 5739 5738 5736 5733 5731 5730 5729 5730 5730 5729 5728 5725 5723 5722 5718 5713 5708 5705 5706 5706 5706 5706 5705 5703
5742 5750 5746 5740 5744 5746 5740 5750 5746 5741 5731 5724 5731 5717 5724 5738 5729 5733 5737 5738 5739 5739 5737 5733 5731 5730 5730 5729 5728 5727 5726 5724 5722 5720 5717 5712 5709 5707 5707 5706 5704 5703 5702 5701
5750 5757 5753 5749 5753 5752 5749 5745 5744 5741 5730 5711 5729 5720 5716 5732 5735 5736 5738 5739 5739 5739 5737 5734 5732 5730 5728 5727 5725 5723 5721 5719 5718 5717 5715 5711 5708 5705 5703 5702 5700 5699 5698 5697
5740 5746 5754 5756 5745 5748 5744 5727 5710 5707 5705 5714 5741 5728 5723 5741 5748 5745 5740 5739 5739 5738 5735 5732 5729 5726 5724 5722 5721 5720 5717 5715 5715 5714 5713 5710 5708 5705 5702 5700 5698 5696 5694 5693
5729 5727 5745 5750 5744 5737 5739 5732 5708 5698 5705 5719 5737 5723 5730 5747 5750 5750 5745 5741 5739 5736 5734 5731 5728 5725 5722 5720 5718 5717 5715 5713 5712 5711 5711 5709 5707 5704 5702 5700 5698 5695 5693 5691
5730 5728 5749 5753 5755 5746 5734 5732 5739 5723 5722 5717 5724 5727 5733 5745 5743 5742 5740 5737 5734 5734 5732 5729 5727 5724 5721 5719 5717 5715 5713 5712 5710 5709 5707 5707 5705 5702 5700 5698 5697 5694 5692 5690
5739 5727 5742 5750 5750 5750 5745 5740 5731 5718 5703 5701 5715 5718 5717 5726 5731 5734 5733 5731 5730 5731 5729 5727 5724 5722 5720 5718 5715 5714 5713 5710 5708 5707 5705 5704 5701 5700 5697 5695 5693 5691 5690 5688
5743 5729 5733 5739 5733 5732 5736 5733 5728 5722 5718 5700 5695 5705 5736 5732 5734 5732 5731 5730 5728 5727 5725 5723 5721 5719 5717 5715 5712 5710 5709 5707 5705 5703 5701 5699 5697 5695 5694 5691 5689 5688 5686 5685
5740 5731 5724 5733 5746 5749 5740 5733 5726 5706 5706 5712 5702 5704 5741 5739 5737 5734 5730 5729 5728 5725 5722 5720 5717 5714 5711 5708 5706 5705 5704 5702 5700 5699 5698 5695 5693 5691 5689 5687 5686 5685 5683 5681
5732 5724 5712 5714 5723 5733 5731 5732 5730 5723 5714 5707 5697 5701 5736 5736 5732 5730 5727 5725 5724 5721 5718 5715 5712 5708 5706 5704 5702 5700 5699 5697 5695 5694 5692 5690 5688 5686 5684 5683 5682 5680 5678 5676
5728 5721 5714 5703 5710 5722 5721 5724 5726 5718 5703 5702 5706 5707 5719 5724 5723 5724 5723 5721 5719 5716 5713 5709 5705 5703 5702 5700 5698 5696 5694 5693 5691 5688 5686 5683 5682 5681 5680 5678 5677 5675 5673 5671
5728 5716 5721 5724 5729 5727 5723 5721 5722 5717 5713 5705 5708 5710 5716 5720 5721 5720 5719 5717 5713 5710 5708 5705 5701 5699 5697 5696 5694 5692 5690 5688 5687 5683 5680 5678 5677 5676 5674 5672 5670 5669 5667 5666
5724 5714 5716 5715 5724 5724 5719 5720 5719 5716 5716 5713 5711 5709 5722 5723 5720 5716 5714 5711 5706 5704 5703 5701 5698 5696 5693 5692 5690 5688 5686 5684 5682 5678 5675 5674 5672 5669 5667 5666 5664 5662 5660 5659
5715 5709 5702 5702 5716 5714 5705 5715 5714 5713 5715 5712 5703 5707 5717 5713 5711 5708 5706 5703 5700 5698 5697 5695 5694 5692 5690 5689 5688 5684 5682 5680 5676 5673 5670 5668 5666 5663 5662 5661 5658 5655 5654 5652
5709 5705 5700 5697 5699 5684 5704 5725 5720 5713 5711 5713 5711 5711 5710 5708 5707 5707 5704 5698 5694 5692 5690 5689 5688 5687 5686 5685 5683 5681 5678 5674 5671 5667 5665 5663 5660 5658 5656 5654 5651 5649 5648 5645
5713 5701 5692 5688 5682 5691 5703 5713 5711 5703 5699 5709 5705 5704 5704 5705 5700 5695 5697 5695 5690 5688 5686 5684 5684 5682 5681 5679 5678 5675 5671 5668 5664 5660 5658 5656 5654 5651 5648 5646 5645 5644 5641 5639
5707 5702 5688 5682 5673 5673 5690 5706 5713 5702 5686 5702 5702 5697 5695 5693 5678 5678 5687 5686 5684 5681 5679 5677 5677 5676 5674 5673 5672 5668 5664 5661 5657 5654 5652 5650 5648 5644 5641 5640 5639 5638 5635 5633
5685 5684 5678 5674 5671 5680 5694 5702 5702 5675 5676 5693 5694 5691 5688 5681 5676 5678 5680 5677 5675 5672 5671 5670 5668 5666 5665 5665 5664 5660 5657 5654 5653 5650 5647 5644 5642 5639 5636 5634 5633 5631 5628 5626
5681 5675 5674 5673 5665 5666 5688 5689 5680 5678 5688 5687 5685 5683 5679 5676 5675 5672 5670 5666 5665 5663 5661 5660 5658 5657 5657 5657 5654 5651 5649 5649 5647 5643 5640 5637 5635 5632 5630 5626 5625 5623 5620 5618
5682 5680 5676 5673 5668 5678 5682 5680 5681 5683 5679 5677 5675 5674 5672 5667 5664 5662 5659 5658 5656 5654 5652 5651 5649 5648 5648 5648 5645 5642 5642 5641 5639 5636 5632 5630 5628 5625 5623 5619 5616 5614 5612 5610
5678 5684 5674 5669 5671 5672 5674 5675 5674 5674 5670 5670 5668 5665 5662 5658 5656 5653 5651 5649 5648 5646 5644 5643 5641 5639 5638 5638 5637 5635 5635 5633 5631 5627 5624 5622 5619 5617 5614 5612 5609 5606 5603 5601
5662 5665 5661 5659 5663 5663 5664 5663 5662 5662 5662 5660 5659 5656 5653 5650 5647 5645 5642 5641 5639 5637 5636 5634 5631 5630 5630 5630 5629 5628 5626 5624 5621 5619 5616 5613 5611 5608 5605 5602 5600 5598 5596 5594
5656 5653 5647 5646 5653 5649 5649 5653 5654 5651 5649 5648 5646 5644 5643 5641 5638 5637 5634 5633 5631 5629 5628 5626 5624 5622 5622 5621 5620 5619 5618 5615 5612 5609 5606 5604 5601 5599 5596 5593 5591 5590 5588 5587